(143130) = 2002 XF34

Discovered at Socorro on 2002-12-05 by LINEAR.

Orbit

Orbit type: Main Belt

Note: WebGL enabled browser required.

epoch2022-01-21.0
epoch JD2459600.5
perihelion date2020-05-29.33296
perihelion JD2458998.83296
argument of perihelion (°)337.38484
ascending node (°)59.87141
inclination (°)2.90283
eccentricity0.0802168
perihelion distance (AU)2.4980383
Tisserand w.r.t. Jupiter3.4
ΔV w.r.t. Earth (km/sec)9.9
semimajor axis (AU)2.7158991
mean anomaly (°)132.49199
mean daily motion (°/day)0.22020820
aphelion distance (AU)2.934
period (years)4.48
P-vector [x]0.79550919
P-vector [y]0.56339958
P-vector [z]0.22303821
Q-vector [x]-0.60435639
Q-vector [y]0.71111609
Q-vector [z]0.35925933
absolute magnitude16.21
phase slope0.15
uncertainty0
referenceMPO 694190
observations used508
oppositions16
arc length (days)9929
first opposition used1995
last opposition used2022
residual rms (arc-secs)0.71
perturbers coarse indicatorM-v
perturbers precise indicator003Ek
first observation date used1995-02-25.0
last observation date used2022-05-03.0
computer namePan
JD of orbit computation2456406.167276
perihelion JD uncertainty (days)1.2407E-04
argument of perihelion uncertainty (°)1.0033E-04
ascending node uncertainty (°)9.6605E-05
inclination uncertainty (°)4.6366E-06
eccentricity uncertainty 4.6506E-08
perihelion distance uncertainty (AU)1.2688E-07
Minimum Orbit Intersection Distances (in AU)
for orbit epoch: 2458200.5, reference: MPO412883
Mercury2.17148
Venus1.77847
Earth1.50791
Mars1.00702
Jupiter2.3957
Saturn6.4507
Uranus15.3117
Neptune27.3285

Observations

528 total observations over interval: 1995 02 25.46771 – 2022 05 27.312442
These data are available for download (format description).

Date (UT) J2000 RA J2000 Dec Magn Location Ref
1995 02 25.46771 12 08 14.59 +03 27 13.3   691 – Steward Observatory, Kitt Peak-Spacewatch MPS 82697
1995 02 25.49678 12 08 13.46 +03 27 21.4 19.9 V 691 – Steward Observatory, Kitt Peak-Spacewatch MPS 82697
2000 04 10.36057 14 55 06.83 -14 58 54.0 21.8 R 695 – Kitt Peak MPS 70102
2000 04 10.43781 14 55 03.52 -14 58 42.4   695 – Kitt Peak MPS 70102
2000 04 27.30849 14 41 33.98 -14 09 03.1 20.5 V 691 – Steward Observatory, Kitt Peak-Spacewatch MPS 70103
2000 04 27.33012 14 41 32.83 -14 08 59.2 21.2 V 691 – Steward Observatory, Kitt Peak-Spacewatch MPS 70103
2000 04 27.35158 14 41 31.67 -14 08 54.6 20.8 V 691 – Steward Observatory, Kitt Peak-Spacewatch MPS 70103
2002 12 05.28994 05 11 15.27 +24 19 08.2 19.5   704 – Lincoln Laboratory ETS, New Mexico MPS 68407
2002 12 05.30542 05 11 14.31 +24 19 07.0 20.0   704 – Lincoln Laboratory ETS, New Mexico MPS 68407
2002 12 05.32073 05 11 13.32 +24 19 06.6 19.8   704 – Lincoln Laboratory ETS, New Mexico MPS 68407
2002 12 05.33613 05 11 12.40 +24 19 07.1 20.1   704 – Lincoln Laboratory ETS, New Mexico MPS 68407
2002 12 06.31008 05 10 12.56 +24 19 11.2 18.8 R 695 – Kitt Peak MPS 70103
2002 12 06.38177 05 10 08.00 +24 19 11.1   695 – Kitt Peak MPS 70103
2002 12 09.29043 05 07 08.32 +24 19 02.9 20.3 V 333 – Desert Eagle Observatory MPS 68407
2002 12 09.30610 05 07 07.38 +24 19 02.6 20.1 V 333 – Desert Eagle Observatory MPS 68407
2002 12 10.29243 05 06 06.36 +24 18 55.1 19.1   704 – Lincoln Laboratory ETS, New Mexico MPS 68407
2002 12 10.30802 05 06 05.35 +24 18 55.4 19.4   704 – Lincoln Laboratory ETS, New Mexico MPS 68407
2002 12 10.32356 05 06 04.41 +24 18 55.1 19.3   704 – Lincoln Laboratory ETS, New Mexico MPS 68407
2002 12 10.33911 05 06 03.27 +24 18 54.8 19.5   704 – Lincoln Laboratory ETS, New Mexico MPS 68407
2002 12 11.24732 05 05 07.48 +24 18 45.7 20.2   704 – Lincoln Laboratory ETS, New Mexico MPS 68407
2002 12 11.26274 05 05 06.47 +24 18 45.0 20.1   704 – Lincoln Laboratory ETS, New Mexico MPS 68407
2002 12 11.27823 05 05 05.41 +24 18 43.8 20.5   704 – Lincoln Laboratory ETS, New Mexico MPS 68407
2002 12 31.22120 04 46 49.41 +24 09 39.5 19.7   704 – Lincoln Laboratory ETS, New Mexico MPS 70103
2002 12 31.23637 04 46 48.74 +24 09 38.7 20.3   704 – Lincoln Laboratory ETS, New Mexico MPS 70103
2002 12 31.28260 04 46 46.63 +24 09 38.1 19.8   704 – Lincoln Laboratory ETS, New Mexico MPS 70103
2004 03 12.26137 12 15 25.32 +02 31 59.2 20.0   644 – Palomar Mountain/NEAT MPS 101199
2004 03 12.29013 12 15 23.87 +02 32 08.1 19.6   644 – Palomar Mountain/NEAT MPS 101199
2004 03 12.32949 12 15 21.92 +02 32 20.2 19.7   644 – Palomar Mountain/NEAT MPS 101199
2004 03 19.33635 12 09 34.51 +03 08 04.6 19.4 C 704 – Lincoln Laboratory ETS, New Mexico MPS 294230
2004 03 19.35807 12 09 33.39 +03 08 08.4 19.8 C 704 – Lincoln Laboratory ETS, New Mexico MPS 294230
2004 03 20.24609 12 08 48.66 +03 12 38.3 20.0 V 691 – Steward Observatory, Kitt Peak-Spacewatch MPS 102203
2004 03 20.27525 12 08 47.14 +03 12 47.1 20.0 V 691 – Steward Observatory, Kitt Peak-Spacewatch MPS 102203
2004 03 20.30389 12 08 45.63 +03 12 55.6 20.9 V 691 – Steward Observatory, Kitt Peak-Spacewatch MPS 102203
2004 03 29.20630 12 01 18.02 +03 55 45.4 20.2 V 691 – Steward Observatory, Kitt Peak-Spacewatch MPS 103144
2004 03 29.23601 12 01 16.52 +03 55 53.9 20.5 V 691 – Steward Observatory, Kitt Peak-Spacewatch MPS 103144
2004 03 29.26418 12 01 15.09 +03 56 01.2 20.0 V 691 – Steward Observatory, Kitt Peak-Spacewatch MPS 103144
2004 04 25.13131 11 44 02.85 +05 15 24.8 21.7 V 691 – Steward Observatory, Kitt Peak-Spacewatch MPS 106239
2004 04 25.16311 11 44 02.03 +05 15 26.5 20.9 V 691 – Steward Observatory, Kitt Peak-Spacewatch MPS 106239
2004 04 25.19520 11 44 01.25 +05 15 29.1 21.4 V 691 – Steward Observatory, Kitt Peak-Spacewatch MPS 106239
2006 09 06.43767 01 33 09.84 +06 02 35.8 20.1 R 644 – Palomar Mountain/NEAT MPS 180945
2006 09 06.44866 01 33 09.66 +06 02 34.4 20.4 R 644 – Palomar Mountain/NEAT MPS 180945
2006 09 06.45858 01 33 09.43 +06 02 33.0 20.3 R 644 – Palomar Mountain/NEAT MPS 180945
2006 09 17.44674 01 28 29.85 +05 33 48.7 20.0 V 691 – Steward Observatory, Kitt Peak-Spacewatch MPS 179267
2006 09 17.46403 01 28 29.23 +05 33 45.4 20.0 V 691 – Steward Observatory, Kitt Peak-Spacewatch MPS 179267
2006 09 17.48143 01 28 28.63 +05 33 41.9 19.9 V 691 – Steward Observatory, Kitt Peak-Spacewatch MPS 179267
2006 09 27.37304 01 21 57.52 +04 57 15.7 19.8 V 691 – Steward Observatory, Kitt Peak-Spacewatch MPS 180945
2006 09 27.39049 01 21 56.69 +04 57 11.7 19.7 V 691 – Steward Observatory, Kitt Peak-Spacewatch MPS 180945
2006 09 27.40794 01 21 55.87 +04 57 07.3 19.8 V 691 – Steward Observatory, Kitt Peak-Spacewatch MPS 180945
2006 10 01.37679 01 18 50.90 +04 40 41.7   691 – Steward Observatory, Kitt Peak-Spacewatch MPS 182577
2006 10 01.39413 01 18 50.04 +04 40 37.3   691 – Steward Observatory, Kitt Peak-Spacewatch MPS 182577
2006 10 01.41149 01 18 49.15 +04 40 32.9   691 – Steward Observatory, Kitt Peak-Spacewatch MPS 182577
2006 10 15.37811 01 06 58.39 +03 41 13.6 19.3 V 703 – Catalina Sky Survey MPS 182890
2006 10 15.38449 01 06 57.99 +03 41 12.0 18.9 V 703 – Catalina Sky Survey MPS 182890
2006 10 15.39086 01 06 57.63 +03 41 11.0 19.2 V 703 – Catalina Sky Survey MPS 182890
2006 10 15.39723 01 06 57.34 +03 41 09.2 19.3 V 703 – Catalina Sky Survey MPS 182890
2006 10 21.19196 01 02 04.99 +03 18 41.2 19.1 V 703 – Catalina Sky Survey MPS 184018
2006 10 21.20227 01 02 04.41 +03 18 37.2 19.0 V 703 – Catalina Sky Survey MPS 184018
2006 10 21.21257 01 02 03.91 +03 18 36.5 19.2 V 703 – Catalina Sky Survey MPS 184018
2006 10 21.22281 01 02 03.44 +03 18 33.9 19.6 V 703 – Catalina Sky Survey MPS 184018
2006 10 22.37461 01 01 06.99 +03 14 26.1 19.3 V G96 – Mt. Lemmon Survey MPS 184018
2006 10 22.38358 01 01 06.52 +03 14 24.4 19.3 V G96 – Mt. Lemmon Survey MPS 184018
2006 10 22.39255 01 01 06.09 +03 14 22.4 19.3 V G96 – Mt. Lemmon Survey MPS 184018
2006 10 22.40157 01 01 05.66 +03 14 20.1 19.4 V G96 – Mt. Lemmon Survey MPS 184018
2006 11 11.19940 00 48 32.43 +02 29 27.9 19.9 V 703 – Catalina Sky Survey MPS 186925
2006 11 11.20965 00 48 32.11 +02 29 27.8 19.4 V 703 – Catalina Sky Survey MPS 186925
2006 11 11.21934 00 48 31.82 +02 29 27.0 19.9 V 703 – Catalina Sky Survey MPS 186925
2006 11 11.22907 00 48 31.60 +02 29 26.5 19.9 V 703 – Catalina Sky Survey MPS 186925
2006 11 14.13749 00 47 25.18 +02 27 50.4 19.7 V G96 – Mt. Lemmon Survey MPS 186925
2006 11 14.14693 00 47 24.97 +02 27 50.1 19.8 V G96 – Mt. Lemmon Survey MPS 186925
2006 11 14.15637 00 47 24.75 +02 27 49.6 19.6 V G96 – Mt. Lemmon Survey MPS 186925
2006 11 14.16581 00 47 24.54 +02 27 49.6 19.8 V G96 – Mt. Lemmon Survey MPS 186925
2006 12 16.13296 00 49 55.45 +03 40 35.5 20.7 V G96 – Mt. Lemmon Survey MPS 195360
2006 12 16.13836 00 49 55.59 +03 40 36.9 20.6 V G96 – Mt. Lemmon Survey MPS 195360
2006 12 16.14374 00 49 55.74 +03 40 38.7 20.9 V G96 – Mt. Lemmon Survey MPS 195360
2006 12 16.14912 00 49 55.88 +03 40 40.0 20.4 V G96 – Mt. Lemmon Survey MPS 195360
2006 12 21.10439 00 52 35.32 +04 05 06.9 20.3 V G96 – Mt. Lemmon Survey MPS 195360
2006 12 21.11134 00 52 35.58 +04 05 09.8 20.6 V G96 – Mt. Lemmon Survey MPS 195360
2006 12 21.11822 00 52 35.83 +04 05 12.0 20.6 V G96 – Mt. Lemmon Survey MPS 195360
2006 12 21.12512 00 52 36.04 +04 05 13.8 20.5 V G96 – Mt. Lemmon Survey MPS 195360
2007 02 06.10027 01 39 26.38 +09 44 22.3 20.9 V G96 – Mt. Lemmon Survey MPS 199337
2007 02 06.10081 01 39 26.42 +09 44 22.6 20.9 V G96 – Mt. Lemmon Survey MPS 199337
2007 02 06.10694 01 39 26.92 +09 44 25.7 20.9 V G96 – Mt. Lemmon Survey MPS 199337
2007 02 06.10749 01 39 26.92 +09 44 26.1 20.6 V G96 – Mt. Lemmon Survey MPS 199337
2007 02 06.11355 01 39 27.43 +09 44 28.8 21.3 V G96 – Mt. Lemmon Survey MPS 199337
2007 02 06.11410 01 39 27.46 +09 44 30.0 21.0 V G96 – Mt. Lemmon Survey MPS 199337
2007 02 06.12017 01 39 27.90 +09 44 32.7 21.6 V G96 – Mt. Lemmon Survey MPS 199337
2007 02 06.12072 01 39 27.97 +09 44 33.2 20.8 V G96 – Mt. Lemmon Survey MPS 199337
2008 01 10.40145 09 41 23.46 +18 08 45.1 20.2 V G96 – Mt. Lemmon Survey MPS 234043
2008 01 10.40690 09 41 23.28 +18 08 46.6 20.2 V G96 – Mt. Lemmon Survey MPS 234043
